Location: La Comballaz
(46.3780°N, 7.0817°E)
Time: 19:52:08
(UTC+00:00)

N. Korean satellite - Pass Details

Date: 07 December 2021
Orbit: 446 x 492 km, 97.3° (Epoch: 18 January)

Event Time Altitude Azimuth Distance (km) Brightness Sun altitude
Rises 04:52:39 0° 12° (NNE) 2,464 10.2 -21.3°
Reaches altitude 10° 04:54:42 10° 12° (NNE) 1,585 9.2 -20.9°
Maximum altitude 04:58:06 90° 267° (W) 454 6.3 -20.4°
Drops below altitude 10° 05:01:27 10° 194° (SSW) 1,571 9.1 -19.8°
Sets 05:03:28 0° 194° (SSW) 2,440 10.1 -19.5°
